340  
ASUS46 KOTX 170225  
RWROTX  
 
EASTERN WASHINGTON/NORTHERN IDAHO ROUNDUP  
NATIONAL WEATHER SERVICE, SPOKANE WA  
700 PM PDT FRI APR 16 2021  
 
NOTE: "FAIR" INDICATED FEW OR NO CLOUDS BELOW 12,000 FEET WITH NO  
SIGNIFICANT WEATHER AND/OR S TO VISIBILITY
.  
   
..NORTHEAST WASHINGTON AND NORTHERN IDAHO PANHANDLE
 
 
 
CITY SKY/WX TMP DP RH WIND PRES REMARKS
 
SPOKANE INTL PTCLDY 67 19 16 E13 30.21S  
SPOKANE DOWNTO CLEAR 66 23 19 E9 30.20F  
COEUR D ALENE CLEAR 64 24 21 N8 30.21F  
DEER PARK CLEAR 68 22 17 E3 30.20F  
SANDPOINT CLEAR 55 30 38 CALM 30.21S  
BONNERS FERRY FAIR 64 25 22 CALM 30.20S  
   
..SOUTHEAST WASHINGTON AND SOUTHERN IDAHO PANHANDLE
 
 
 
CITY SKY/WX TMP DP RH WIND PRES REMARKS
 
WALLA WALLA CLEAR 67 25 20 NE18 30.13R  
PULLMAN/MOSCOW CLEAR 64 16 15 NE7 30.21F  
LEWISTON CLEAR 69 18 14 E6 30.16F  
LOWELL N/A 53 33 46 NE6 30.18S  
GRANGEVILLE FAIR 52 21 30 E7 30.19S  
   
..COLUMBIA BASIN
 
 
 
CITY SKY/WX TMP DP RH WIND PRES REMARKS
 
EPHRATA CLEAR 72 23 16 NE8 30.18F  
MOSES LAKE CLEAR 75 22 13 NE9 30.18F  
PASCO CLEAR 74 25 16 NE10 30.15F  
RICHLAND CLEAR 73 23 15 N7 30.15F  
HERMISTON CLEAR 72 24 16 NE12 30.14S  
PENDLETON CLEAR 65 26 23 N14 30.15S  
   
..EAST SLOPES CASCADES
 
 
 
CITY SKY/WX TMP DP RH WIND PRES REMARKS
 
THE DALLES CLEAR 74 26 16 E8 30.13S  
YAKIMA CLEAR 73 20 13 NE10 30.18F  
ELLENSBURG CLEAR 70 24 17 E7 30.19F  
STAMPEDE PASS CLEAR 56 23 27 CALM 30.25F  
WENATCHEE CLEAR 70 25 18 W5 30.18F  
WINTHROP FAIR 67 30 24 CALM 30.19F  
OMAK CLEAR 72 34 24 SW7 30.18F  
SUNNYSIDE CLEAR 71 20 14 NE7G17 30.16S  
   
..SOUTHERN BRITISH COLUMBIA
 
 
 
CITY SKY/WX TMP DP RH WIND PRES REMARKS
 
PENTICTON CLEAR 63 32 31 N7 30.16F  
CASTLEGAR CLEAR 66 32 28 N8 30.17F  
CRANBROOK PTCLDY 61 19 20 SE3 30.21  
OSOYOOS N/A 73 27 17 S2 N/A  
CRESTON N/A 68 19 15 W5 N/A  
   
..WESTERN MONTANA
 
 
 
CITY SKY/WX TMP DP RH WIND PRES REMARKS
 
KALISPELL CLEAR 60 17 18 E7 30.23F  
MISSOULA CLEAR 58 22 24 NE6 30.24F  
   
..NEIGHBORING CITIES
 
 
 
CITY SKY/WX TMP DP RH WIND PRES REMARKS
 
SEATTLE CLEAR 72 35 25 N14 30.14F  
PORTLAND CLEAR 75 26 16 E14 30.09S  
BOISE CLEAR 60 22 23 NW6 30.13S  
GREAT FALLS CLEAR 46 25 43 SW10 30.27F  
CALGARY PTCLDY 59 10 14 E3 30.24S  
 
CLICK HERE TO GO TO PREVIOUS BULLETINS.

The Nexlab WA Page
The Nexlab ID Page Main Text Page